Regional Weather Roundup
Issued by NWS

Home | Current Version | Previous Version | Graphics & Text | Print | Product List | Glossary On
Versions: 1 2 3 4 5 6 7 8 9 10 11 12 13 14 15 16 17 18 19 20 21 22 23 24 25 26 27 28 29 30 31 32 33 34 35 36 37 38 39 40 41 42 43 44 45 46 47 48 49 50
000
ASUS45 KCYS 022210
RWRWY

WYOMING REGIONAL WEATHER ROUNDUP
NATIONAL WEATHER SERVICE CHEYENNE WY
300 PM MST FRI DEC 02 2016

NOTE:  "FAIR" INDICATES FEW OR NO CLOUDS BELOW 12,000 FEET
WITH NO SIGNIFICANT WEATHER AND/OR OBSTRUCTIONS TO VISIBILITY.

WYZ001-022300-
YELLOWSTONE NATIONAL PARK

CITY           SKY/WX    TMP DP  RH WIND       PRES   REMARKS
LK YELLOWSTONE   N/A     20   7  57 W6        30.11F WCI  12
W YELLOWSTONE  NOT AVBL

$$
WYZ002>013-054>058-071-098>099-022300-
NORTHERN WYOMING

CITY           SKY/WX    TMP DP  RH WIND       PRES   REMARKS
JACKSON        FAIR      25  16  68 S5        30.16F WCI  19
CODY           FAIR      34   6  31 S10       30.10S WCI  26
GREYBULL       FAIR      38  19  46 SE9       30.13F WCI  31
WORLAND        FAIR      37  19  48 S6        30.14F WCI  32
SHERIDAN       FAIR      39  20  46 S8        30.12F WCI  33
BUFFALO        FAIR      37  19  48 SE12      30.12F WCI  29
GILLETTE       FAIR      35  19  52 CALM      30.14S
HULETT         FAIR      34  25  69 SW9       30.16S WCI  26
NEWCASTLE      FAIR      34  23  64 NW5       30.17S WCI  30

$$
WYZ014>020-022>026-101>103-022300-
CENTRAL WYOMING

CITY           SKY/WX    TMP DP  RH WIND       PRES   REMARKS
BIG PINEY      CLOUDY    28  11  48 VRB6      30.13S WCI  22
PINEDALE       FAIR      27  10  50 MISG      30.14R
DUBOIS         FAIR      27   5  39 W14G20    30.07R WCI  15
LANDER         FAIR      31  18  58 SE6       30.12F WCI  25
RIVERTON       FAIR      32  16  51 S6        30.13F WCI  26
CASPER         PTSUNNY   33  22  63 CALM      30.14S
DOUGLAS        FAIR      36  20  52 CALM      30.16R

$$
WYZ021-027>030-104>119-022300-
SOUTHERN WYOMING

CITY           SKY/WX    TMP DP  RH WIND       PRES   REMARKS
EVANSTON       FAIR      24  11  57 NW9       30.14R WCI  14
KEMMERER         N/A     25  12  58 W8        30.14R WCI  16
FORT BRIDGER   FAIR      25  11  55 N3        30.17R
ROCK SPRINGS   FAIR      22  13  68 CALM      30.13S
DIXON          MOCLDY    25  16  66 N6        30.14R WCI  18
RAWLINS        CLOUDY    23  14  68 NE5       30.11S WCI  17
SARATOGA       CLOUDY    21  14  73 NW5       30.11S WCI  15
LARAMIE        LGT SNOW  23  16  74 E9        30.08R WCI  13
CHEYENNE       CLOUDY    29  18  63 S9        30.13S WCI  20
TORRINGTON     FAIR      39  21  48 W3        30.17S
PINE BLUFFS    CLOUDY    32  27  80 S10       30.18S WCI  24

$$



USA.gov is the U.S. government's official web portal to all federal, state and local government web resources and services.